Latest Coastal Weather Observations for Arlington Reef

IDQ60701

Issued at 7:51 pm EST Wednesday 4 May 2016 (issued every 10 minutes, with the page automatically refreshed every 10 minutes)

About coastal observations | Map of coastal stations | Coastal observations for QLD | Marine services | Other Formats
Station Details ID: 200879 Name: ARLINGTON REEF Lat: -16.72 Lon: 146.11 Height: 0.0 m
Data from the previous 72 hours. | See also: Recent months at Arlington Reef
Date/Time
EST
Temp

°C
Wind Pressure Rain
since 9am
mm
Weather Cloud Vis
km
Sea
Height
m
Swell
Dir
 
Speed
knots
Gust
knots
hPa Trend Height
m
Period
s
Dir
04/07:30pm - SSE 13 15 1014.0 - - - - - - - - -
04/07:00pm - SSE 12 14 1013.5 - - - - - - - - -
04/06:30pm - SSE 12 13 1013.1 - - - - - - - - -
04/06:00pm - SSE 13 15 1012.8 - - - - - - - - -
04/05:30pm - SSE 12 13 1012.3 - - - - - - - - -
04/05:00pm - SSE 12 13 1012.3 - - - - - - - - -
04/04:30pm - SSE 11 14 1012.1 - - - - - - - - -
04/04:00pm - SSE 11 13 1012.2 - - - - - - - - -
04/03:30pm - SSE 12 14 1012.0 - - - - - - - - -
04/03:00pm - S 10 11 1012.0 - - - - - - - - -
04/02:30pm - S 11 13 1012.1 - - - - - - - - -
04/02:00pm - S 11 13 1012.3 - - - - - - - - -
04/01:30pm - S 11 13 1012.9 - - - - - - - - -
04/01:00pm - S 12 14 1013.2 - - - - - - - - -
04/12:30pm - S 13 15 1013.6 - - - - - - - - -
04/12:00pm - S 12 13 1014.1 - - - - - - - - -
04/11:30am - S 13 16 1014.5 - - - - - - - - -
04/11:00am - S 13 17 1014.8 - - - - - - - - -
04/10:30am - S 12 15 1015.1 - - - - - - - - -
04/10:00am - SSE 13 15 1015.2 - - - - - - - - -
04/09:30am - SSE 13 14 1015.2 - - - - - - - - -
04/09:00am - SE 12 13 1015.2 - - - - - - - - -
04/08:30am - SE 12 13 1014.9 - - - - - - - - -
04/08:00am - SE 10 12 1014.6 - - - - - - - - -
04/07:30am - ESE 10 13 1014.3 - - - - - - - - -
04/07:00am - SE 10 12 1014.0 - - - - - - - - -
04/06:30am - SE 10 11 1013.6 - - - - - - - - -
04/06:00am - SSE 9 11 1013.2 - - - - - - - - -
04/05:30am - SSE 8 9 1012.9 - - - - - - - - -
04/05:00am - SSE 7 9 1012.7 - - - - - - - - -
04/04:30am - SE 8 9 1012.6 - - - - - - - - -
04/04:00am - SE 6 8 1012.8 - - - - - - - - -
04/03:30am - SE 6 7 1012.7 - - - - - - - - -
04/03:00am - SE 6 7 1012.8 - - - - - - - - -
04/02:30am - SSE 5 6 1012.9 - - - - - - - - -
04/02:00am - SSE 6 8 1013.1 - - - - - - - - -
04/01:30am - SSE 6 7 1013.2 - - - - - - - - -
04/01:00am - SE 7 8 1013.3 - - - - - - - - -
04/12:30am - SE 7 9 1013.5 - - - - - - - - -
04/12:00am - SE 8 9 1013.8 - - - - - - - - -
 
Date/Time
EST
Temp

°C
Wind Pressure Rain
since 9am
mm
Weather Cloud Vis
km
Sea
Height
m
Swell
Dir
 
Speed
knots
Gust
knots
hPa Trend Height
m
Period
s
Dir
03/11:30pm - SE 8 9 1014.0 - - - - - - - - -
03/11:00pm - ESE 8 10 1014.2 - - - - - - - - -
03/10:30pm - SE 9 11 1014.3 - - - - - - - - -
03/10:00pm - SE 9 11 1014.4 - - - - - - - - -
03/09:30pm - SE 9 11 1014.5 - - - - - - - - -
03/09:00pm - SE 10 11 1014.4 - - - - - - - - -
03/08:30pm - SE 11 13 1014.2 - - - - - - - - -
03/08:00pm - SE 11 13 1013.9 - - - - - - - - -
03/07:30pm - SE 11 13 1013.3 - - - - - - - - -
03/07:00pm - SE 10 13 1013.1 - - - - - - - - -
03/06:30pm - SE 10 12 1012.6 - - - - - - - - -
03/06:00pm - SE 9 11 1012.2 - - - - - - - - -
03/05:30pm - SE 9 11 1011.8 - - - - - - - - -
03/05:00pm - SE 9 10 1011.6 - - - - - - - - -
03/04:30pm - SE 9 11 1011.5 - - - - - - - - -
03/04:00pm - SSE 8 10 1011.5 - - - - - - - - -
03/03:30pm - SSE 8 10 1011.4 - - - - - - - - -
03/03:00pm - SSE 8 9 1011.4 - - - - - - - - -
03/02:30pm - SSE 8 10 1011.8 - - - - - - - - -
03/02:00pm - SSE 7 9 1011.8 - - - - - - - - -
03/01:30pm - SSE 7 9 1012.1 - - - - - - - - -
03/01:00pm - SSE 7 9 1012.5 - - - - - - - - -
03/12:30pm - S 7 9 1013.0 - - - - - - - - -
03/12:00pm - S 7 9 1013.3 - - - - - - - - -
03/11:30am - S 8 9 1013.7 - - - - - - - - -
03/11:00am - S 8 10 1014.0 - - - - - - - - -
03/10:30am - SSE 7 8 1014.3 - - - - - - - - -
03/10:00am - SE 6 8 1014.5 - - - - - - - - -
03/09:30am - SE 6 8 1014.6 - - - - - - - - -
03/09:00am - SE 7 8 1014.5 - - - - - - - - -
03/08:30am - SE 7 8 1014.4 - - - - - - - - -
03/08:00am - SE 7 8 1014.2 - - - - - - - - -
03/07:30am - SE 7 8 1014.2 - - - - - - - - -
03/07:00am - SE 6 8 1014.0 - - - - - - - - -
03/06:30am - SE 7 8 1013.5 - - - - - - - - -
03/06:00am - SE 6 8 1013.2 - - - - - - - - -
03/05:30am - SE 6 7 1012.8 - - - - - - - - -
03/05:00am - SE 8 9 1012.6 - - - - - - - - -
03/04:30am - SE 7 8 1012.5 - - - - - - - - -
03/04:00am - ESE 8 10 1012.5 - - - - - - - - -
03/03:30am - SE 9 10 1012.6 - - - - - - - - -
03/03:00am - SE 7 8 1012.7 - - - - - - - - -
03/02:30am - SE 8 10 1013.2 - - - - - - - - -
03/02:00am - ESE 8 9 1013.2 - - - - - - - - -
03/01:30am - SE 7 8 1013.6 - - - - - - - - -
03/01:00am - SE 8 9 1013.9 - - - - - - - - -
03/12:30am - SE 8 10 1014.3 - - - - - - - - -
03/12:00am - ESE 8 10 1014.5 - - - - - - - - -
 
Date/Time
EST
Temp

°C
Wind Pressure Rain
since 9am
mm
Weather Cloud Vis
km
Sea
Height
m
Swell
Dir
 
Speed
knots
Gust
knots
hPa Trend Height
m
Period
s
Dir
02/11:30pm - ESE 9 11 1014.6 - - - - - - - - -
02/11:00pm - ESE 10 11 1014.8 - - - - - - - - -
02/10:30pm - SE 10 12 1014.8 - - - - - - - - -
02/10:00pm - ESE 11 13 1014.9 - - - - - - - - -
02/09:30pm - SE 11 13 1014.8 - - - - - - - - -
02/09:00pm - ESE 12 14 1014.8 - - - - - - - - -
02/08:30pm - SE 12 15 1014.8 - - - - - - - - -
02/08:00pm - SE 12 14 1014.6 - - - - - - - - -
02/07:30pm - SE 12 14 1014.3 - - - - - - - - -
02/07:00pm - SE 12 14 1014.0 - - - - - - - - -
02/06:30pm - SSE 12 14 1013.4 - - - - - - - - -
02/06:00pm - SE 12 14 1013.0 - - - - - - - - -
02/05:30pm - SSE 12 14 1012.7 - - - - - - - - -
02/05:00pm - SE 12 14 1012.3 - - - - - - - - -
02/04:30pm - SSE 11 13 1012.0 - - - - - - - - -
02/04:00pm - SSE 11 13 1011.9 - - - - - - - - -
02/03:30pm - SSE 11 12 1011.8 - - - - - - - - -
02/03:00pm - SSE 12 13 1011.7 - - - - - - - - -
02/02:30pm - SSE 11 13 1011.8 - - - - - - - - -
02/02:00pm - SSE 10 12 1012.1 - - - - - - - - -
02/01:30pm - SSE 10 12 1012.6 - - - - - - - - -
02/01:00pm - SSE 9 10 1013.0 - - - - - - - - -
02/12:30pm - SSE 8 13 1013.3 - - - - - - - - -
02/12:00pm - SSE 9 10 1013.7 - - - - - - - - -
02/11:30am - SSE 9 10 1014.2 - - - - - - - - -
02/11:00am - SSE 9 10 1014.6 - - - - - - - - -
02/10:30am - SE 10 11 1014.9 - - - - - - - - -
02/10:00am - SE 9 10 1015.3 - - - - - - - - -
02/09:30am - SE 9 10 1015.2 - - - - - - - - -
02/09:00am - SE 8 9 1015.2 - - - - - - - - -
02/08:30am - SE 9 11 1015.0 - - - - - - - - -
02/08:00am - SE 9 11 1014.7 - - - - - - - - -
02/07:30am - SE 9 11 1014.5 - - - - - - - - -
02/07:00am - SE 10 11 1014.3 - - - - - - - - -
02/06:30am - SE 9 11 1013.9 - - - - - - - - -
02/06:00am - SE 9 11 1013.6 - - - - - - - - -
02/05:30am - SE 11 13 1013.5 - - - - - - - - -
02/05:00am - SE 10 12 1013.4 - - - - - - - - -
02/04:30am - SE 10 13 1013.1 - - - - - - - - -
02/04:00am - ESE 11 12 1013.0 - - - - - - - - -
02/03:30am - ESE 12 13 1013.0 - - - - - - - - -
02/03:00am - SE 12 15 1013.0 - - - - - - - - -
02/02:30am - SE 13 15 1013.2 - - - - - - - - -
02/02:00am - SE 14 16 1013.4 - - - - - - - - -
02/01:30am - SE 14 16 1013.7 - - - - - - - - -
02/01:00am - SE 14 15 1014.0 - - - - - - - - -
02/12:30am - SE 15 18 1014.4 - - - - - - - - -
02/12:00am - SE 14 16 1014.7 - - - - - - - - -
 
Date/Time
EST
Temp

°C
Wind Pressure Rain
since 9am
mm
Weather Cloud Vis
km
Sea
Height
m
Swell
Dir
 
Speed
knots
Gust
knots
hPa Trend Height
m
Period
s
Dir
01/11:30pm - SE 14 16 1014.9 - - - - - - - - -
01/11:00pm - SE 15 16 1015.1 - - - - - - - - -
01/10:30pm - SE 14 16 1015.2 - - - - - - - - -
01/10:00pm - SE 15 17 1015.1 - - - - - - - - -
01/09:30pm - SE 14 17 1015.1 - - - - - - - - -
01/09:00pm - SE 14 17 1015.0 - - - - - - - - -
01/08:30pm - SE 14 16 1015.0 - - - - - - - - -
01/08:00pm - SE 13 16 1014.7 - - - - - - - - -

Other Formats:

Comma delimited format used in spreadsheet applications
http://www.bom.gov.au/fwo/IDQ60701/IDQ60701.94284.axf

JavaScript Object Notation format (JSON) in row-major order
http://www.bom.gov.au/fwo/IDQ60701/IDQ60701.94284.json